Regional Weather Roundup
Issued by NWS Little Rock, AR

Home | Current Version | Previous Version | Text Only | Print | Product List | Glossary Off
Versions: 1 2 3 4 5 6 7 8 9 10 11 12 13 14 15 16 17 18 19 20 21 22 23 24 25 26 27 28 29 30 31 32 33 34 35 36 37 38 39 40 41 42 43 44 45 46 47 48 49 50

239
ASUS44 KLZK 030505
RWRLZK

WEATHER ROUNDUP FOR ARKANSAS
NATIONAL WEATHER SERVICE LITTLE ROCK AR
1200 AM CDT TUE MAY 03 2016

NOTE: "FAIR" INDICATES FEW OR NO CLOUDS BELOW 12,000 FEET WITH NO
SIGNIFICANT WEATHER AND/OR OBSTRUCTIONS TO VISIBILITY.

ARZ001-003-010-029-030600-
NORTHWEST ARKANSAS

CITY           SKY/WX    TMP DP  RH WIND       PRES   REMARKS
FAYETTEVILLE   PTCLDY    45  45 100 S6        30.08F
FORT SMITH     CLEAR     50  45  83 SW3       30.08F
HARRISON       MOCLDY    49  45  86 W5        30.07F
BENTONVILLE    CLEAR     48  43  81 CALM      30.08F
ROGERS         PTCLDY    48  47  96 W3        30.08F
SILOAM SPGS    CLEAR     48  37  66 CALM      30.09F
HIGHFILL       CLEAR     48  45  89 NW3       30.08S
$$

ARZ004-005-016-030600-
NORTH CENTRAL ARKANSAS

CITY           SKY/WX    TMP DP  RH WIND       PRES   REMARKS
BATESVILLE     CLOUDY    57  48  72 NW5       30.05S
FLIPPIN        CLOUDY   N/A N/A N/A CALM      30.04S
MTN HOME       CLOUDY    53  46  77 CALM      30.05F
$$

ARZ040-041-030600-
WEST CENTRAL ARKANSAS

CITY           SKY/WX    TMP DP  RH WIND       PRES   REMARKS
MENA           CLEAR     52  46  82 CALM      30.07F
MOUNT IDA      CLOUDY    54  49  83 CALM      30.04F
$$

ARZ009-017-025-026-028-030600-
NORTHEAST ARKANSAS

CITY           SKY/WX    TMP DP  RH WIND       PRES   REMARKS
CORNING          N/A     59  48  67 N8        30.04S
JONESBORO      CLOUDY    60  49  66 VRB7      30.01F
NEWPORT        CLOUDY    59  51  74 N10       30.04S
WALNUT RIDGE   CLOUDY    57  45  62 N12       30.03S
BLYTHEVILLE    CLOUDY    58  52  80 N17       30.01S
$$

ARZ022-023-033-042-044-030600-
CENTRAL ARKANSAS

CITY           SKY/WX    TMP DP  RH WIND       PRES   REMARKS
LITTLE ROCK    PTCLDY    59  51  75 N6        30.04R
N LITTLE ROCK    N/A     58  51  77 N8        30.02F
SEARCY         CLOUDY    59  51  75 VRB3      30.05S
HOT SPRINGS    CLOUDY    57  50  77 W3        30.05F
RUSSELLVILLE   CLOUDY    58  48  69 NW5       30.06S
$$

ARZ036-030600-
EAST ARKANSAS

CITY           SKY/WX    TMP DP  RH WIND       PRES   REMARKS
WEST MEMPHIS   CLOUDY    61  55  81 NW3       29.99F
$$

ARZ050-053-066-070-073-030600-
SOUTHWEST ARKANSAS

CITY           SKY/WX    TMP DP  RH WIND       PRES   REMARKS
ARKADELPHIA    FAIR      59  57  92 NW3       30.06R
CAMDEN         CLOUDY    57  55  94 NW5       30.04S
TEXARKANA      CLEAR     55  49  80 NW7       30.06F
EL DORADO      CLEAR     55  55 100 NW3       30.04S
DE QUEEN       CLEAR     49  49 100 W5        30.06S
$$

ARZ056-057-069-030600-
SOUTHEAST ARKANSAS

CITY           SKY/WX    TMP DP  RH WIND       PRES   REMARKS
PINE BLUFF     CLEAR     56  55  97 CALM      30.03S
STUTTGART      CLEAR     57  52  82 N6        30.03S
MONTICELLO     CLEAR     58  56  93 CALM      30.02S

$$






USA.gov is the U.S. government's official web portal to all federal, state and local government web resources and services.